Stations météo

réclame
Mon MeteoGroup
Antwerpen, Belgique (6450): Température de l'air & dewpoint: 19.05.2018 13:00:00 - 25.05.2018 13:00:00 (CEST)Antwerpen, Belgique (6450): Vitesse du vent & gusts: 19.05.2018 13:00:00 - 25.05.2018 13:00:00 (CEST)Antwerpen, Belgique (6450): Direction du vent: 19.05.2018 13:00:00 - 25.05.2018 13:00:00 (CEST)Antwerpen, Belgique (6450): reduced air pressure: 19.05.2018 13:00:00 - 25.05.2018 13:00:00 (CEST)Antwerpen, Belgique (6450): visibility: 19.05.2018 13:00:00 - 25.05.2018 13:00:00 (CEST)
Date & Time tt [°C] td [°C] ff [km/h] ff [knt] fx [km/h] fx [knt] dd ppp [hPa] vv [km]
25.05.2018 13:00:00 - - - - - - - - -
25.05.2018 12:00:00 22,3 16,7 5 3 14 8 SSE 1018,1 10
25.05.2018 11:00:00 20,6 16,1 4 2 - - - 1018,0 10
25.05.2018 10:00:00 19,8 16,8 5 3 11 6 SE 1018,0 10
25.05.2018 09:00:00 18,0 15,7 4 2 7 4 - 1017,9 6
25.05.2018 08:00:00 14,6 14,4 4 2 - - SE 1017,7 0,3
25.05.2018 07:00:00 13,6 13,3 4 2 7 4 - 1017,5 0,2
25.05.2018 06:00:00 14,2 13,9 4 2 7 4 - 1017,1 0,1
25.05.2018 05:00:00 14,9 14,4 4 2 - - S 1016,8 0,1
25.05.2018 04:00:00 15,4 14,9 8 4 11 6 E 1016,9 0,6
25.05.2018 03:00:00 15,0 14,3 4 2 11 6 - 1016,7 0,6
25.05.2018 02:00:00 14,8 14,2 9 5 - - ESE 1016,6 2,4
25.05.2018 01:00:00 16,8 15,8 0 0 14 8 N 1017,2 5
25.05.2018 00:00:00 16,0 14,9 4 2 7 4 SE 1017,1 4,0
24.05.2018 23:00:00 16,1 14,4 2 1 - - - 1017,0 10
24.05.2018 22:00:00 16,0 14,5 11 6 18 10 E 1016,6 8
24.05.2018 21:00:00 18,4 16,9 5 3 11 6 W 1016,4 10
24.05.2018 20:00:00 18,3 16,4 4 2 - - - 1016,1 10
24.05.2018 19:00:00 19,7 16,8 11 6 29 16 S 1016,5 7
24.05.2018 18:00:00 21,8 14,6 18 10 29 16 E 1016,3 30
24.05.2018 17:00:00 23,6 15,2 16 9 - - ENE 1015,8 10
24.05.2018 16:00:00 23,2 15,1 16 9 29 16 E 1016,8 10
24.05.2018 15:00:00 22,9 14,5 15 8 29 16 E 1017,2 10
24.05.2018 14:00:00 22,4 13,7 15 8 - - E 1017,8 10
24.05.2018 13:00:00 21,8 13,4 18 10 29 16 ENE 1018,1 10
24.05.2018 12:00:00 21,6 14,0 16 9 32 18 ENE 1018,4 10
24.05.2018 11:00:00 20,5 13,3 15 8 - - ENE 1018,7 10
24.05.2018 10:00:00 18,1 11,5 9 5 25 14 ENE 1019,2 10
24.05.2018 09:00:00 17,5 10,6 11 6 22 12 E 1019,3 10
24.05.2018 08:00:00 15,9 9,8 11 6 - - ENE 1019,5 10
24.05.2018 07:00:00 15,6 10,2 9 5 11 6 ENE 1019,5 10
24.05.2018 06:00:00 14,4 9,7 5 3 11 6 NNE 1019,4 10
24.05.2018 05:00:00 15,0 9,8 5 3 - - NNE 1019,7 10
24.05.2018 04:00:00 16,0 9,8 9 5 11 6 NE 1019,8 10
24.05.2018 03:00:00 16,5 10,9 8 4 11 6 ENE 1020,0 10
24.05.2018 02:00:00 17,8 11,2 4 2 - - S 1020,4 10
24.05.2018 01:00:00 18,5 10,3 11 6 18 10 ENE 1019,8 10
24.05.2018 00:00:00 19,0 12,0 11 6 18 10 ENE 1019,9 10
23.05.2018 23:00:00 19,5 12,9 8 4 - - NE 1019,9 10
23.05.2018 22:00:00 20,0 14,4 8 4 11 6 NE 1019,7 10
23.05.2018 21:00:00 21,0 15,0 5 3 - - E - 10
23.05.2018 20:00:00 21,2 15,6 11 6 - - E 1019,1 10
23.05.2018 19:00:00 22,6 15,1 13 7 29 16 NE 1018,8 10
23.05.2018 18:00:00 23,1 14,5 13 7 32 18 ENE 1018,7 10
23.05.2018 17:00:00 22,6 14,6 18 10 - - NE 1019,1 10
23.05.2018 16:00:00 22,8 14,7 16 9 32 18 NE 1019,3 10
23.05.2018 15:00:00 22,3 15,1 16 9 29 16 NE 1019,6 10
23.05.2018 14:00:00 20,7 14,0 15 8 - - ENE 1019,8 10
23.05.2018 13:00:00 20,2 15,7 11 6 22 12 NE 1020,0 10
23.05.2018 12:00:00 18,1 15,3 13 7 18 10 NE 1019,8 9
23.05.2018 11:00:00 17,7 15,3 11 6 - - NNE 1019,7 9
23.05.2018 10:00:00 16,4 15,0 9 5 18 10 N 1019,5 8
23.05.2018 09:00:00 14,9 14,0 8 4 11 6 N 1019,2 4,8
23.05.2018 08:00:00 14,9 13,8 5 3 - - N 1018,7 4,8
23.05.2018 07:00:00 15,0 13,9 8 4 11 6 NNE 1018,1 4,5
23.05.2018 06:00:00 14,8 13,7 8 4 11 6 N 1017,6 5
23.05.2018 05:00:00 15,0 13,6 4 2 - - - 1017,1 7
23.05.2018 04:00:00 15,0 12,8 2 1 4 2 - 1016,7 10
23.05.2018 03:00:00 13,5 12,6 2 1 4 2 - 1016,6 7
23.05.2018 02:00:00 13,8 13,0 4 2 - - ESE 1016,6 10
23.05.2018 01:00:00 15,6 13,3 2 1 7 4 - 1016,3 10
23.05.2018 00:00:00 16,4 13,2 4 2 7 4 - 1015,9 10
22.05.2018 23:00:00 17,1 12,9 4 2 - - NE 1016,1 25
22.05.2018 22:00:00 17,0 12,9 5 3 14 8 N 1015,2 10
22.05.2018 21:00:00 17,1 13,0 8 4 11 6 N 1014,7 10
22.05.2018 20:00:00 17,1 12,7 8 4 - - WNW 1014,7 10
22.05.2018 19:00:00 16,3 13,4 8 4 22 12 SE 1014,6 10
22.05.2018 18:00:00 17,7 12,8 15 8 36 19 ESE 1014,6 10
22.05.2018 17:00:00 22,2 13,7 16 9 - - NNE 1012,8 10
22.05.2018 16:00:00 22,7 12,0 22 12 36 19 NNW 1012,6 10
22.05.2018 15:00:00 23,7 12,5 4 2 7 4 - 1012,5 10
22.05.2018 14:00:00 23,6 12,5 4 2 - - - 1012,7 10
22.05.2018 13:00:00 23,0 14,6 5 3 18 10 E 1012,8 10
22.05.2018 12:00:00 21,7 14,3 4 2 18 10 - 1012,8 10
22.05.2018 11:00:00 20,3 13,7 8 4 - - NE 1012,8 10
22.05.2018 10:00:00 18,9 14,1 9 5 18 10 ENE 1013,0 10
22.05.2018 09:00:00 18,1 14,0 8 4 14 8 NE 1012,7 10
22.05.2018 08:00:00 15,4 13,2 5 3 - - ENE 1012,4 10
22.05.2018 07:00:00 13,8 12,0 2 1 7 4 - 1012,0 10
22.05.2018 06:00:00 13,1 11,1 2 1 7 4 - 1011,8 10
22.05.2018 05:00:00 12,8 11,4 2 1 - - - 1011,6 10
22.05.2018 04:00:00 12,2 11,8 2 1 7 4 E 1011,8 5
22.05.2018 03:00:00 12,5 11,4 4 2 7 4 NE 1011,9 1,4
22.05.2018 02:00:00 13,9 13,4 4 2 - - NE 1011,8 3,2
22.05.2018 01:00:00 14,8 13,1 0 0 7 4 N 1012,1 6
22.05.2018 00:00:00 16,2 14,2 5 3 7 4 NW 1012,4 10
21.05.2018 23:00:00 15,6 14,6 4 2 - - - 1012,3 10
21.05.2018 22:00:00 16,7 15,2 4 2 7 4 ESE 1012,0 10
21.05.2018 21:00:00 17,8 13,8 4 2 11 6 ENE 1011,9 10
21.05.2018 20:00:00 17,9 13,1 4 2 - - - 1012,0 10
21.05.2018 19:00:00 21,4 14,8 8 4 29 16 SE 1011,7 10
21.05.2018 18:00:00 25,1 11,1 8 4 22 12 SE 1011,5 10
21.05.2018 17:00:00 24,8 11,0 11 6 - - E 1012,3 10
21.05.2018 16:00:00 25,0 11,6 16 9 29 16 E 1012,8 10
21.05.2018 15:00:00 23,5 10,2 18 10 32 18 ESE 1013,4 10
21.05.2018 14:00:00 22,7 10,2 18 10 - - E 1013,7 30
21.05.2018 13:00:00 22,2 9,4 16 9 29 16 ENE 1014,3 10
21.05.2018 12:00:00 20,9 10,6 16 9 25 14 ENE 1015,1 10
21.05.2018 11:00:00 17,9 11,8 13 7 - - ENE 1015,7 10
21.05.2018 10:00:00 17,5 12,5 11 6 14 8 ENE 1016,2 15
21.05.2018 09:00:00 14,7 12,1 8 4 14 8 E 1016,8 10
21.05.2018 08:00:00 13,6 12,0 9 5 - - E 1017,2 9
21.05.2018 07:00:00 13,1 11,7 4 2 7 4 - 1016,8 8
21.05.2018 06:00:00 12,8 11,6 4 2 7 4 - 1017,5 6
21.05.2018 05:00:00 12,8 11,9 2 1 - - - 1017,6 7
21.05.2018 04:00:00 11,4 10,5 0 0 4 2 N 1017,8 4,0
21.05.2018 03:00:00 12,7 11,8 2 1 4 2 NNW 1018,4 3,9
21.05.2018 02:00:00 12,8 11,7 2 1 - - - 1019,2 9
21.05.2018 01:00:00 13,5 12,4 5 3 11 6 NE 1019,3 10
21.05.2018 00:00:00 14,7 12,7 5 3 14 8 ENE 1019,5 10
20.05.2018 23:00:00 15,7 12,6 9 5 - - W 1019,8 10
20.05.2018 22:00:00 16,0 12,1 9 5 22 12 ESE 1020,4 10
20.05.2018 21:00:00 18,7 10,9 15 8 40 21 SSW 1019,5 10
20.05.2018 20:00:00 23,3 10,3 13 7 - - ESE 1018,5 10
20.05.2018 19:00:00 22,7 8,8 13 7 25 14 ESE 1018,5 10
20.05.2018 18:00:00 23,5 9,0 15 8 29 16 ENE 1018,9 10
20.05.2018 17:00:00 23,4 8,4 15 8 - - E 1019,7 10
20.05.2018 16:00:00 22,5 7,5 8 4 25 14 - 1020,4 10
20.05.2018 15:00:00 21,8 7,9 9 5 25 14 E 1021,3 10
20.05.2018 14:00:00 20,8 7,6 9 5 - - E 1022,0 10
20.05.2018 13:00:00 19,7 7,8 11 6 18 10 E 1022,6 10
20.05.2018 12:00:00 18,2 9,8 4 2 14 8 - 1023,1 10
20.05.2018 11:00:00 16,3 10,4 8 4 - - NE 1023,5 10
20.05.2018 10:00:00 13,9 10,2 9 5 14 8 E 1023,6 9
20.05.2018 09:00:00 12,2 10,0 8 4 11 6 NE 1023,7 8
20.05.2018 08:00:00 9,5 8,5 5 3 - - NNE 1023,4 3,5
20.05.2018 07:00:00 8,4 8,3 4 2 11 6 NNE 1023,5 0,4
20.05.2018 06:00:00 7,9 7,5 5 3 14 8 NNE 1023,4 0,4
20.05.2018 05:00:00 8,2 7,8 9 5 - - N 1023,4 0,6
20.05.2018 04:00:00 8,5 7,9 5 3 11 6 N 1023,2 2,8
20.05.2018 03:00:00 8,3 7,5 4 2 7 4 - 1023,4 3,4
20.05.2018 02:00:00 8,9 7,9 4 2 - - - 1023,8 4,9
20.05.2018 01:00:00 9,4 8,2 5 3 11 6 N 1023,8 6
20.05.2018 00:00:00 9,6 8,2 4 2 7 4 N 1023,8 5
19.05.2018 23:00:00 10,4 8,8 5 3 - - N 1023,5 6
19.05.2018 22:00:00 10,7 9,0 8 4 14 8 N 1023,2 7
19.05.2018 21:00:00 11,7 8,6 8 4 18 10 N 1023,1 8
19.05.2018 20:00:00 12,9 9,0 11 6 - - N 1023,1 10
19.05.2018 19:00:00 12,8 8,8 11 6 18 10 NNW 1023,1 10
19.05.2018 18:00:00 12,7 8,6 9 5 18 10 N 1023,4 10
19.05.2018 17:00:00 12,4 8,1 11 6 - - N 1023,9 10
19.05.2018 16:00:00 13,2 7,9 5 3 18 10 NNE 1024,1 10
19.05.2018 15:00:00 12,5 7,6 8 4 14 8 NNE 1024,2 10
19.05.2018 14:00:00 12,6 7,0 8 4 - - NE 1024,3 10
19.05.2018 13:00:00 12,1 6,5 4 2 11 6 - 1024,5 10

tt = Température de l'air
td = dewpoint
ff = Vitesse du vent
fx = gusts
dd = Direction du vent
ppp = reduced air pressure
vv = visibility

stations d'obs. à proximité